Time,TemperatureF,DewpointF,PressureIn,WindDirection,WindDirectionDegrees,WindSpeedMPH,WindSpeedGustMPH,Humidity,HourlyPrecipIn,Conditions,Clouds,dailyrainin,SoftwareType,DateUTC
2013-06-28 00:04:00,77.0,75.0,29.85,West,259,0.0,0.0,94,0.00,,,0.00,weatherlink.com 1.10,2013-06-28 04:04:00,
2013-06-28 00:19:00,76.7,75.0,29.84,West,259,0.0,0.0,95,0.00,,,0.00,weatherlink.com 1.10,2013-06-28 04:19:00,
2013-06-28 00:34:00,76.7,76.0,29.83,NNE,25,0.0,1.0,96,0.00,,,0.00,weatherlink.com 1.10,2013-06-28 04:34:00,
2013-06-28 00:49:00,76.8,76.0,29.82,WSW,247,0.0,1.0,96,0.00,,,0.00,weatherlink.com 1.10,2013-06-28 04:49:00,
2013-06-28 01:04:00,77.0,76.0,29.82,WSW,248,0.0,1.0,96,0.00,,,0.00,weatherlink.com 1.10,2013-06-28 05:04:00,
2013-06-28 01:19:00,77.3,76.0,29.82,NE,35,0.0,1.0,96,0.00,,,0.00,weatherlink.com 1.10,2013-06-28 05:19:00,
2013-06-28 01:34:00,77.4,77.0,29.83,North,357,0.0,1.0,97,0.00,,,0.00,weatherlink.com 1.10,2013-06-28 05:34:00,
2013-06-28 01:49:00,77.5,77.0,29.82,North,349,0.0,1.0,97,0.00,,,0.00,weatherlink.com 1.10,2013-06-28 05:49:00,
2013-06-28 02:04:00,77.8,77.0,29.82,NE,50,0.0,1.0,97,0.00,,,0.00,weatherlink.com 1.10,2013-06-28 06:04:00,
2013-06-28 02:19:00,77.9,77.0,29.82,WSW,237,0.0,1.0,97,0.00,,,0.00,weatherlink.com 1.10,2013-06-28 06:19:00,
2013-06-28 02:34:00,78.0,77.0,29.82,NE,47,0.0,1.0,97,0.00,,,0.00,weatherlink.com 1.10,2013-06-28 06:34:00,
2013-06-28 02:49:00,78.0,77.0,29.82,East,83,0.0,1.0,97,0.00,,,0.00,weatherlink.com 1.10,2013-06-28 06:49:00,
2013-06-28 03:04:00,77.8,77.0,29.81,East,83,0.0,0.0,97,0.00,,,0.00,weatherlink.com 1.10,2013-06-28 07:04:00,
2013-06-28 03:19:00,77.7,77.0,29.80,East,83,0.0,1.0,97,0.00,,,0.00,weatherlink.com 1.10,2013-06-28 07:19:00,
2013-06-28 03:34:00,77.7,77.0,29.80,NE,53,0.0,1.0,97,0.00,,,0.00,weatherlink.com 1.10,2013-06-28 07:34:00,
2013-06-28 03:49:00,77.7,77.0,29.80,West,273,0.0,0.0,97,0.00,,,0.00,weatherlink.com 1.10,2013-06-28 07:49:00,
2013-06-28 04:04:00,77.6,77.0,29.79,ESE,109,0.0,1.0,97,0.00,,,0.00,weatherlink.com 1.10,2013-06-28 08:04:00,
2013-06-28 04:19:00,77.4,77.0,29.79,South,176,0.0,0.0,97,0.00,,,0.00,weatherlink.com 1.10,2013-06-28 08:19:00,
2013-06-28 04:34:00,77.4,76.0,29.78,South,183,0.0,0.0,96,0.00,,,0.00,weatherlink.com 1.10,2013-06-28 08:34:00,
2013-06-28 04:49:00,77.3,76.0,29.78,WNW,285,0.0,2.0,95,0.00,,,0.00,weatherlink.com 1.10,2013-06-28 08:49:00,
2013-06-28 05:05:00,77.1,75.0,29.77,WNW,302,0.0,1.0,94,0.00,,,0.00,weatherlink.com 1.10,2013-06-28 09:05:00,
2013-06-28 05:20:00,76.8,75.0,29.77,West,262,0.0,1.0,94,0.00,,,0.00,weatherlink.com 1.10,2013-06-28 09:20:00,
2013-06-28 05:35:00,76.4,75.0,29.76,SW,231,0.0,1.0,95,0.00,,,0.00,weatherlink.com 1.10,2013-06-28 09:35:00,
2013-06-28 05:50:00,76.2,75.0,29.77,NNW,331,0.0,2.0,95,0.00,,,0.00,weatherlink.com 1.10,2013-06-28 09:50:00,
2013-06-28 06:05:00,76.1,75.0,29.77,SW,216,0.0,5.0,95,0.00,,,0.00,weatherlink.com 1.10,2013-06-28 10:05:00,
2013-06-28 06:20:00,75.9,74.0,29.77,West,259,0.0,2.0,95,0.00,,,0.00,weatherlink.com 1.10,2013-06-28 10:20:00,
2013-06-28 06:35:00,75.8,74.0,29.78,WSW,256,0.0,2.0,95,0.00,,,0.00,weatherlink.com 1.10,2013-06-28 10:35:00,
2013-06-28 06:50:00,75.9,74.0,29.78,NW,307,0.0,2.0,95,0.00,,,0.00,weatherlink.com 1.10,2013-06-28 10:50:00,
2013-06-28 07:05:00,76.1,75.0,29.78,North,1,0.0,1.0,95,0.00,,,0.00,weatherlink.com 1.10,2013-06-28 11:05:00,
2013-06-28 07:20:00,76.5,75.0,29.79,WNW,290,0.0,2.0,94,0.00,,,0.00,weatherlink.com 1.10,2013-06-28 11:20:00,
2013-06-28 07:35:00,77.2,75.0,29.79,SSW,193,0.0,2.0,94,0.00,,,0.00,weatherlink.com 1.10,2013-06-28 11:35:00,
2013-06-28 07:50:00,77.9,76.0,29.79,WNW,291,2.0,3.0,92,0.00,,,0.00,weatherlink.com 1.10,2013-06-28 11:50:00,
2013-06-28 08:05:00,78.6,76.0,29.79,SW,216,0.0,2.0,91,0.00,,,0.00,weatherlink.com 1.10,2013-06-28 12:05:00,
2013-06-28 08:20:00,79.7,76.0,29.79,WNW,300,1.0,6.0,88,0.00,,,0.00,weatherlink.com 1.10,2013-06-28 12:20:00,
2013-06-28 08:35:00,80.7,76.0,29.78,SW,235,1.0,5.0,85,0.00,,,0.00,weatherlink.com 1.10,2013-06-28 12:35:00,
2013-06-28 08:50:00,81.6,76.0,29.78,West,271,0.0,4.0,84,0.00,,,0.00,weatherlink.com 1.10,2013-06-28 12:50:00,
2013-06-28 09:05:00,81.5,77.0,29.78,WNW,299,0.0,7.0,85,0.00,,,0.00,weatherlink.com 1.10,2013-06-28 13:05:00,
2013-06-28 09:20:00,81.3,77.0,29.78,WNW,295,3.0,8.0,85,0.00,,,0.00,weatherlink.com 1.10,2013-06-28 13:20:00,
2013-06-28 09:35:00,81.2,76.0,29.78,WNW,301,0.0,4.0,85,0.00,,,0.00,weatherlink.com 1.10,2013-06-28 13:35:00,
2013-06-28 09:50:00,81.4,76.0,29.79,West,279,0.0,5.0,84,0.00,,,0.00,weatherlink.com 1.10,2013-06-28 13:50:00,
2013-06-28 10:05:00,82.1,77.0,29.79,WSW,257,1.0,5.0,84,0.00,,,0.00,weatherlink.com 1.10,2013-06-28 14:05:00,
2013-06-28 10:20:00,82.0,77.0,29.78,West,262,0.0,6.0,84,0.00,,,0.00,weatherlink.com 1.10,2013-06-28 14:20:00,
2013-06-28 10:35:00,83.6,78.0,29.77,West,271,3.0,5.0,82,0.00,,,0.00,weatherlink.com 1.10,2013-06-28 14:35:00,
2013-06-28 10:50:00,85.0,77.0,29.77,WSW,241,2.0,6.0,77,0.00,,,0.00,weatherlink.com 1.10,2013-06-28 14:50:00,
2013-06-28 11:05:00,86.6,77.0,29.77,WNW,297,0.0,6.0,73,0.00,,,0.00,weatherlink.com 1.10,2013-06-28 15:05:00,
2013-06-28 11:20:00,87.1,77.0,29.78,WNW,288,3.0,7.0,72,0.00,,,0.00,weatherlink.com 1.10,2013-06-28 15:20:00,
2013-06-28 11:35:00,87.3,77.0,29.77,NW,312,1.0,8.0,72,0.00,,,0.00,weatherlink.com 1.10,2013-06-28 15:35:00,
2013-06-28 11:50:00,87.7,77.0,29.77,West,269,0.0,4.0,71,0.00,,,0.00,weatherlink.com 1.10,2013-06-28 15:50:00,
2013-06-28 12:05:00,88.3,78.0,29.77,South,191,0.0,3.0,71,0.00,,,0.00,weatherlink.com 1.10,2013-06-28 16:05:00,
2013-06-28 12:20:00,88.8,79.0,29.77,SSW,203,1.0,6.0,72,0.00,,,0.00,weatherlink.com 1.10,2013-06-28 16:20:00,
2013-06-28 12:35:00,90.8,80.0,29.76,ESE,105,0.0,3.0,71,0.00,,,0.00,weatherlink.com 1.10,2013-06-28 16:35:00,
2013-06-28 12:50:00,90.3,78.0,29.76,SSW,198,0.0,5.0,68,0.00,,,0.00,weatherlink.com 1.10,2013-06-28 16:50:00,
2013-06-28 13:05:00,91.6,77.0,29.75,WSW,248,2.0,4.0,63,0.00,,,0.00,weatherlink.com 1.10,2013-06-28 17:05:00,
2013-06-28 13:21:00,91.3,77.0,29.75,NW,310,0.0,8.0,63,0.00,,,0.00,weatherlink.com 1.10,2013-06-28 17:21:00,
2013-06-28 13:36:00,92.9,78.0,29.74,NNW,344,0.0,5.0,63,0.00,,,0.00,weatherlink.com 1.10,2013-06-28 17:36:00,
2013-06-28 13:51:00,93.2,77.0,29.74,NW,309,1.0,4.0,59,0.00,,,0.00,weatherlink.com 1.10,2013-06-28 17:51:00,
2013-06-28 14:06:00,92.7,80.0,29.73,WNW,301,0.0,5.0,66,0.00,,,0.00,weatherlink.com 1.10,2013-06-28 18:06:00,
2013-06-28 14:21:00,92.9,77.0,29.73,SSW,208,0.0,5.0,61,0.00,,,0.00,weatherlink.com 1.10,2013-06-28 18:21:00,
2013-06-28 14:36:00,92.9,79.0,29.72,SW,221,1.0,5.0,64,0.00,,,0.00,weatherlink.com 1.10,2013-06-28 18:36:00,
2013-06-28 15:06:00,92.7,80.0,29.71,SW,223,0.0,3.0,67,0.00,,,0.00,weatherlink.com 1.10,2013-06-28 19:06:00,
2013-06-28 15:21:00,92.7,82.0,29.71,East,99,1.0,3.0,70,0.00,,,0.00,weatherlink.com 1.10,2013-06-28 19:21:00,
2013-06-28 15:36:00,91.1,82.0,29.71,NW,322,1.0,5.0,75,0.00,,,0.00,weatherlink.com 1.10,2013-06-28 19:36:00,
2013-06-28 15:51:00,90.5,82.0,29.71,WSW,238,0.0,3.0,75,0.00,,,0.00,weatherlink.com 1.10,2013-06-28 19:51:00,
2013-06-28 16:06:00,89.8,81.0,29.71,ENE,64,1.0,6.0,74,0.00,,,0.00,weatherlink.com 1.10,2013-06-28 20:06:00,
2013-06-28 16:21:00,89.0,81.0,29.70,SSW,204,0.0,4.0,78,0.00,,,0.00,weatherlink.com 1.10,2013-06-28 20:21:00,
2013-06-28 16:36:00,89.5,81.0,29.70,NE,41,2.0,9.0,77,0.00,,,0.00,weatherlink.com 1.10,2013-06-28 20:36:00,
2013-06-28 16:51:00,88.7,81.0,29.69,SSE,162,0.0,7.0,79,0.00,,,0.00,weatherlink.com 1.10,2013-06-28 20:51:00,
2013-06-28 17:06:00,88.0,81.0,29.69,SSE,150,0.0,7.0,80,0.00,,,0.00,weatherlink.com 1.10,2013-06-28 21:06:00,
2013-06-28 17:21:00,88.1,82.0,29.69,West,260,0.0,6.0,81,0.00,,,0.00,weatherlink.com 1.10,2013-06-28 21:21:00,
2013-06-28 17:36:00,88.3,81.0,29.68,North,349,2.0,5.0,78,0.00,,,0.00,weatherlink.com 1.10,2013-06-28 21:36:00,
2013-06-28 17:51:00,87.0,81.0,29.68,SSW,203,0.0,2.0,83,0.00,,,0.00,weatherlink.com 1.10,2013-06-28 21:51:00,
2013-06-28 18:06:00,87.3,81.0,29.68,NNW,337,0.0,8.0,82,0.00,,,0.00,weatherlink.com 1.10,2013-06-28 22:06:00,
2013-06-28 18:21:00,85.9,80.0,29.68,ENE,61,0.0,4.0,83,0.00,,,0.00,weatherlink.com 1.10,2013-06-28 22:21:00,
2013-06-28 18:36:00,85.2,80.0,29.68,SSE,158,0.0,1.0,85,0.00,,,0.00,weatherlink.com 1.10,2013-06-28 22:36:00,
2013-06-28 18:51:00,85.2,80.0,29.68,NNE,23,0.0,2.0,85,0.00,,,0.00,weatherlink.com 1.10,2013-06-28 22:51:00,
2013-06-28 19:06:00,86.1,80.0,29.68,East,82,0.0,3.0,83,0.00,,,0.00,weatherlink.com 1.10,2013-06-28 23:06:00,
2013-06-28 19:21:00,86.3,80.0,29.69,WNW,288,1.0,3.0,82,0.00,,,0.00,weatherlink.com 1.10,2013-06-28 23:21:00,
2013-06-28 19:36:00,85.8,81.0,29.69,NW,318,0.0,2.0,84,0.00,,,0.00,weatherlink.com 1.10,2013-06-28 23:36:00,
2013-06-28 19:51:00,85.3,80.0,29.69,North,6,0.0,1.0,85,0.00,,,0.00,weatherlink.com 1.10,2013-06-28 23:51:00,
2013-06-28 20:06:00,84.4,80.0,29.69,ESE,121,0.0,1.0,87,0.00,,,0.00,weatherlink.com 1.10,2013-06-29 00:06:00,
2013-06-28 20:21:00,83.5,80.0,29.70,NNE,29,0.0,0.0,89,0.00,,,0.00,weatherlink.com 1.10,2013-06-29 00:21:00,
2013-06-28 20:36:00,82.8,80.0,29.70,SW,229,0.0,0.0,90,0.00,,,0.00,weatherlink.com 1.10,2013-06-29 00:36:00,
2013-06-28 20:51:00,82.1,79.0,29.70,SW,229,0.0,1.0,90,0.00,,,0.00,weatherlink.com 1.10,2013-06-29 00:51:00,
2013-06-28 21:06:00,81.6,79.0,29.70,NNW,328,0.0,1.0,91,0.00,,,0.00,weatherlink.com 1.10,2013-06-29 01:06:00,
2013-06-28 21:21:00,81.1,78.0,29.69,NNW,328,0.0,0.0,91,0.00,,,0.00,weatherlink.com 1.10,2013-06-29 01:21:00,
2013-06-28 21:36:00,80.6,78.0,29.68,NNW,328,0.0,0.0,92,0.00,,,0.00,weatherlink.com 1.10,2013-06-29 01:36:00,
2013-06-28 21:51:00,80.2,78.0,29.69,NNW,328,0.0,1.0,93,0.00,,,0.00,weatherlink.com 1.10,2013-06-29 01:51:00,
2013-06-28 22:06:00,79.9,78.0,29.69,NNE,30,0.0,0.0,93,0.00,,,0.00,weatherlink.com 1.10,2013-06-29 02:06:00,
2013-06-28 22:21:00,79.7,78.0,29.68,NNE,20,0.0,1.0,94,0.00,,,0.00,weatherlink.com 1.10,2013-06-29 02:21:00,
2013-06-28 22:36:00,79.7,78.0,29.68,NE,47,0.0,1.0,93,0.00,,,0.00,weatherlink.com 1.10,2013-06-29 02:36:00,
2013-06-28 22:51:00,79.5,77.0,29.68,NE,48,0.0,0.0,92,0.00,,,0.00,weatherlink.com 1.10,2013-06-29 02:51:00,
2013-06-28 23:06:00,79.2,77.0,29.69,NE,48,0.0,1.0,92,0.00,,,0.00,weatherlink.com 1.10,2013-06-29 03:06:00,
2013-06-28 23:21:00,78.9,77.0,29.69,NE,48,0.0,1.0,92,0.00,,,0.00,weatherlink.com 1.10,2013-06-29 03:21:00,
2013-06-28 23:36:00,78.4,76.0,29.69,NE,48,0.0,0.0,93,0.00,,,0.00,weatherlink.com 1.10,2013-06-29 03:36:00,
2013-06-28 23:51:00,78.0,76.0,29.69,NE,48,0.0,0.0,93,0.00,,,0.00,weatherlink.com 1.10,2013-06-29 03:51:00,